351P/Wiegert-PanSTARRS (2015)

Japanese version
Home page
Updated on July 5, 2017

---------------------------------------------------------------------

* Profile

Designation 351P/2016 P2
Discovery Date August 8, 2016
Magnitude 21.0 mag
Discoverer Pan-STARRS 1 telescope (Haleakala)

* Pictures

* Orbital Elements

Epoch 2015 Dec. 4.0 TT = JDT 2457360.5
T 2015 Nov. 16.63501 TT                                 MPCW
q   3.1215029            (2000.0)            P               Q
n   0.10569037     Peri.  352.34393     +0.10508832     +0.97089102
a   4.4304288      Node   283.50321     -0.90026995     +0.00093563
e   0.2954400      Incl.   12.78870     -0.42245764     +0.23951985
P   9.33
From 47 observations 1998 Oct. 18-2016 Aug. 30, mean residual 0".5.

* Magnitudes Graph

        m1 = 12.5 + 5 log d + 10.0 log r

---------------------------------------------------------------------

The orbital elements are published on M.P.E.C. 2017-K62.
The magnitudes graphs are made with Comet for Windows.

---------------------------------------------------------------------

Copyright(C) Seiichi Yoshida (comet@aerith.net). All rights reserved.